AKJ345 VTSP-WMKK

Flight info

Callsign AKJ345
Flight time N/A
Altitude 39000
Route REBED1A REBED B579 VPL Y509 ANGUN Y508 NIREN NIREN3J
Aircraft B38M/M-SDE1FGHILORVWXY/HB1

Departure

Time 2026-05-06 15:28
Airport Phuket International Airport (VTSP)

Arrival

Time N/A
Airport Kuala Lumpur International Airport (WMKK)
Time Latitude Longitude Altitude Speed Heading
2026-05-06 15:02 8.10983 98.30312 29 ft 0 kts 285°
2026-05-06 15:23 8.10979 98.30326 29 ft 2 kts 285°
2026-05-06 15:23 8.10975 98.30341 29 ft 2 kts 286°
2026-05-06 15:24 8.10970 98.30357 29 ft 2 kts 288°
2026-05-06 15:24 8.10964 98.30373 29 ft 2 kts 292°
2026-05-06 15:24 8.10956 98.30387 29 ft 2 kts 310°
2026-05-06 15:24 8.10943 98.30393 29 ft 1 kts 21°
2026-05-06 15:25 8.10944 98.30393 29 ft 1 kts 22°
2026-05-06 15:25 8.10946 98.30394 29 ft 0 kts 22°
2026-05-06 15:26 8.10960 98.30397 29 ft 5 kts
2026-05-06 15:26 8.11001 98.30397 29 ft 7 kts 348°
2026-05-06 15:27 8.11044 98.30366 29 ft 9 kts 322°
2026-05-06 15:27 8.11101 98.30351 29 ft 9 kts 356°
2026-05-06 15:27 8.11173 98.30352 29 ft 11 kts
2026-05-06 15:27 8.11202 98.30407 29 ft 10 kts 82°
2026-05-06 15:28 8.11222 98.30617 30 ft 66 kts 84°
2026-05-06 15:28 8.11290 98.31345 35 ft 139 kts 85°
2026-05-06 15:28 8.11404 98.32511 200 ft 185 kts 84°
2026-05-06 15:28 8.11484 98.33374 743 ft 184 kts 84°
2026-05-06 15:29 8.11603 98.34651 1531 ft 189 kts 85°
2026-05-06 15:29 8.11770 98.36526 2000 ft 213 kts 83°
2026-05-06 15:29 8.11866 98.37537 2278 ft 225 kts 83°
2026-05-06 15:29 8.12023 98.39177 2682 ft 243 kts 83°
2026-05-06 15:30 8.12243 98.41512 3450 ft 254 kts 85°
2026-05-06 15:30 8.12353 98.42696 3933 ft 257 kts 85°
2026-05-06 15:30 8.12526 98.44528 4408 ft 266 kts 85°
2026-05-06 15:30 8.12701 98.46388 4649 ft 267 kts 85°
2026-05-06 15:31 8.12875 98.48236 5361 ft 264 kts 85°
2026-05-06 15:31 8.13049 98.50102 5987 ft 269 kts 85°
2026-05-06 15:31 8.13225 98.51982 6695 ft 270 kts 85°
2026-05-06 15:32 8.13581 98.55790 8021 ft 275 kts 85°
2026-05-06 15:32 8.13563 98.57722 8654 ft 276 kts 103°
2026-05-06 15:32 8.12765 98.59477 9249 ft 280 kts 127°
2026-05-06 15:32 8.11264 98.60746 9829 ft 287 kts 151°
2026-05-06 15:33 8.09309 98.61298 10295 ft 301 kts 173°
2026-05-06 15:33 8.07165 98.61385 10604 ft 314 kts 174°
2026-05-06 15:33 8.04946 98.61483 11004 ft 323 kts 175°
2026-05-06 15:33 8.02676 98.61574 11545 ft 328 kts 175°
2026-05-06 15:34 8.00388 98.61660 12142 ft 331 kts 175°
2026-05-06 15:34 7.98072 98.61746 12793 ft 334 kts 175°
2026-05-06 15:34 7.95741 98.61831 13422 ft 337 kts 176°
2026-05-06 15:34 7.93378 98.61917 14052 ft 341 kts 176°
2026-05-06 15:35 7.90977 98.62004 14518 ft 351 kts 176°
2026-05-06 15:35 7.88495 98.62094 14921 ft 361 kts 176°
2026-05-06 15:35 7.85956 98.62186 15419 ft 368 kts 176°
2026-05-06 15:35 7.83389 98.62279 15988 ft 371 kts 176°
2026-05-06 15:36 7.80799 98.62372 16502 ft 375 kts 176°
2026-05-06 15:36 7.78185 98.62467 17050 ft 377 kts 176°
2026-05-06 15:36 7.75580 98.62565 17554 ft 380 kts 175°
2026-05-06 15:36 7.73376 98.62972 17967 ft 380 kts 160°
2026-05-06 15:37 7.71303 98.63982 18371 ft 381 kts 145°
2026-05-06 15:37 7.69172 98.65584 18814 ft 384 kts 141°
2026-05-06 15:37 7.67060 98.67250 19272 ft 387 kts 141°
2026-05-06 15:37 7.64948 98.68948 19710 ft 389 kts 140°
2026-05-06 15:38 7.62838 98.70663 20140 ft 392 kts 140°
2026-05-06 15:38 7.60714 98.72402 20564 ft 394 kts 140°
2026-05-06 15:38 7.58582 98.74153 20958 ft 397 kts 140°
2026-05-06 15:38 7.56437 98.75915 21357 ft 399 kts 140°
2026-05-06 15:39 7.54277 98.77690 21711 ft 402 kts 140°
2026-05-06 15:39 7.52099 98.79479 22096 ft 404 kts 140°
2026-05-06 15:39 7.49916 98.81273 22464 ft 407 kts 140°
2026-05-06 15:39 7.47714 98.83082 22842 ft 409 kts 140°
2026-05-06 15:40 7.45500 98.84898 23212 ft 411 kts 140°
2026-05-06 15:40 7.43277 98.86721 23559 ft 414 kts 140°
2026-05-06 15:40 7.41034 98.88560 23882 ft 417 kts 140°
2026-05-06 15:40 7.38775 98.90413 24212 ft 420 kts 140°
2026-05-06 15:41 7.36507 98.92272 24570 ft 422 kts 140°
2026-05-06 15:41 7.34256 98.94118 24906 ft 424 kts 140°
2026-05-06 15:41 7.31935 98.96020 25248 ft 426 kts 140°
2026-05-06 15:41 7.29656 98.97889 25582 ft 428 kts 140°
2026-05-06 15:42 7.27345 98.99782 25897 ft 431 kts 140°
2026-05-06 15:42 7.25015 99.01691 26222 ft 433 kts 141°
2026-05-06 15:42 7.22674 99.03608 26535 ft 435 kts 141°
2026-05-06 15:42 7.20323 99.05534 26847 ft 437 kts 141°
2026-05-06 15:43 7.17957 99.07472 27154 ft 439 kts 141°
2026-05-06 15:43 7.15586 99.09413 27451 ft 441 kts 141°
2026-05-06 15:43 7.13202 99.11366 27748 ft 443 kts 141°
2026-05-06 15:43 7.10806 99.13327 28029 ft 445 kts 141°
2026-05-06 15:44 7.08400 99.15297 28331 ft 446 kts 141°
2026-05-06 15:44 7.05988 99.17270 28606 ft 448 kts 141°
2026-05-06 15:44 7.03563 99.19255 28858 ft 450 kts 141°
2026-05-06 15:44 7.01534 99.20915 29087 ft 451 kts 141°
2026-05-06 15:45 6.99095 99.22910 29354 ft 453 kts 141°
2026-05-06 15:45 6.96640 99.24918 29607 ft 455 kts 141°
2026-05-06 15:45 6.94177 99.26933 29865 ft 457 kts 141°
2026-05-06 15:45 6.91707 99.28952 30131 ft 458 kts 141°
2026-05-06 15:46 6.89228 99.30979 30361 ft 460 kts 141°
2026-05-06 15:46 6.86741 99.33012 30596 ft 462 kts 141°
2026-05-06 15:46 6.84245 99.35052 30832 ft 463 kts 140°
2026-05-06 15:46 6.81737 99.37104 31096 ft 465 kts 141°
2026-05-06 15:47 6.79225 99.39155 31302 ft 467 kts 141°
2026-05-06 15:47 6.76696 99.41221 31540 ft 468 kts 141°
2026-05-06 15:47 6.74205 99.43257 31845 ft 467 kts 141°
2026-05-06 15:47 6.71653 99.45341 32163 ft 466 kts 141°
2026-05-06 15:48 6.69165 99.47372 32477 ft 466 kts 141°
2026-05-06 15:48 6.66621 99.49450 32789 ft 465 kts 141°
2026-05-06 15:48 6.64110 99.51501 33113 ft 464 kts 141°
2026-05-06 15:48 6.61609 99.53542 33421 ft 463 kts 141°
2026-05-06 15:49 6.59109 99.55583 33709 ft 462 kts 141°
2026-05-06 15:49 6.56613 99.57621 34004 ft 462 kts 141°
2026-05-06 15:49 6.54151 99.59630 34289 ft 461 kts 141°
2026-05-06 15:49 6.51666 99.61658 34591 ft 460 kts 141°
2026-05-06 15:50 6.49178 99.63688 34863 ft 460 kts 141°
2026-05-06 15:50 6.46683 99.65694 35130 ft 459 kts 142°
2026-05-06 15:50 6.44295 99.67567 35390 ft 459 kts 142°
2026-05-06 15:50 6.42033 99.69350 35654 ft 458 kts 142°
2026-05-06 15:51 6.39525 99.71328 35926 ft 457 kts 142°
2026-05-06 15:51 6.37011 99.73278 36155 ft 457 kts 146°
2026-05-06 15:51 6.34183 99.74720 36401 ft 455 kts 161°
2026-05-06 15:51 6.31153 99.75646 36575 ft 457 kts 163°
2026-05-06 15:52 6.28114 99.76563 36792 ft 456 kts 163°
2026-05-06 15:52 6.25079 99.77453 37152 ft 451 kts 163°
2026-05-06 15:52 6.22075 99.78316 37467 ft 449 kts 163°
2026-05-06 15:52 6.19066 99.79171 37652 ft 448 kts 164°
2026-05-06 15:53 6.16069 99.80019 37815 ft 448 kts 164°
2026-05-06 15:53 6.13068 99.80868 37941 ft 449 kts 164°
2026-05-06 15:53 6.10052 99.81721 38097 ft 449 kts 164°
2026-05-06 15:53 6.07052 99.82568 38239 ft 449 kts 164°
2026-05-06 15:54 6.04047 99.83417 38378 ft 449 kts 164°
2026-05-06 15:54 6.01459 99.84148 38494 ft 449 kts 164°
2026-05-06 15:59 5.96972 99.85416 38680 ft 449 kts 164°
2026-05-06 16:00 5.94717 99.86052 38784 ft 449 kts 164°
2026-05-06 16:09 5.90990 99.87105 38876 ft 449 kts 164°
2026-05-06 16:09 5.84979 99.88802 38857 ft 448 kts 164°
2026-05-06 16:10 5.78981 99.90495 38860 ft 448 kts 164°
2026-05-06 16:10 5.73001 99.92182 38853 ft 444 kts 164°
2026-05-06 16:11 5.70550 99.92874 38863 ft 445 kts 164°
2026-05-06 16:24 5.67066 99.93857 38864 ft 447 kts 164°
2026-05-06 16:25 5.61440 99.95444 38864 ft 449 kts 164°
2026-05-06 16:25 5.57325 99.96605 38860 ft 449 kts 164°